This is the latest recevied weather packets stored in our database for station/object N0FDH. If no packets are shown the sender has not sent any weather packets the latest 10 day(s).
| Time | Temp. | Humidity | Pressure | Rain* | Wind** | Luminosity | Snow |
|---|---|---|---|---|---|---|---|
| 1777839541 | 20° C | 25% | 1004.5 hPa | 0 mm | - | 574 W/m² | - |
| 1777839237 | 19.44° C | 27% | 1004.4 hPa | 0 mm | - | 573 W/m² | - |
| 1777838935 | 19.44° C | 25% | 1004.5 hPa | 0 mm | - | 575 W/m² | - |
| 1777838630 | 20° C | 26% | 1004.5 hPa | 0 mm | - | 584 W/m² | - |
| 1777838328 | 19.44° C | 26% | 1004.5 hPa | 0 mm | - | 601 W/m² | - |
| 1777838024 | 20° C | 26% | 1004.7 hPa | 0 mm | - | 611 W/m² | - |
| 1777837722 | 19.44° C | 27% | 1004.7 hPa | 0 mm | - | 596 W/m² | - |
| 1777837417 | 19.44° C | 27% | 1004.6 hPa | 0 mm | - | 633 W/m² | - |
| 1777837114 | 18.89° C | 27% | 1004.8 hPa | 0 mm | - | 634 W/m² | - |
| 1777836810 | 19.44° C | 31% | 1004.5 hPa | 0 mm | - | 625 W/m² | - |
| 1777836506 | 19.44° C | 28% | 1004.6 hPa | 0 mm | - | 643 W/m² | - |
| 1777836202 | 20° C | 30% | 1004.7 hPa | 0 mm | - | 646 W/m² | - |
| 1777835898 | 19.44° C | 31% | 1004.8 hPa | 0 mm | - | 650 W/m² | - |
| 1777835595 | 19.44° C | 29% | 1004.8 hPa | 0 mm | - | 654 W/m² | - |
| 1777835292 | 19.44° C | 34% | 1004.9 hPa | 0 mm | - | 659 W/m² | - |
| 1777834989 | 19.44° C | 29% | 1004.8 hPa | 0 mm | - | 665 W/m² | - |
| 1777834686 | 18.89° C | 31% | 1005 hPa | 0 mm | - | 669 W/m² | - |
| 1777834382 | 19.44° C | 33% | 1004.9 hPa | 0 mm | - | 673 W/m² | - |
| 1777834081 | 19.44° C | 30% | 1005.2 hPa | 0 mm | - | 679 W/m² | - |
| 1777833778 | 19.44° C | 36% | 1005 hPa | 0 mm | - | 679 W/m² | - |
| 1777833474 | 18.89° C | 34% | 1005.2 hPa | 0 mm | - | 684 W/m² | - |
| 1777833172 | 18.33° C | 31% | 1005.3 hPa | 0 mm | - | 687 W/m² | - |
| 1777832869 | 18.89° C | 34% | 1005.4 hPa | 0 mm | - | 689 W/m² | - |
| 1777832568 | 18.89° C | 32% | 1005 hPa | 0 mm | - | 689 W/m² | - |
| 1777832264 | 18.89° C | 37% | 1005 hPa | 0 mm | - | 691 W/m² | - |
* Rain latest hour (hover to see other rain measurements)
** Current wind speed in m/s (hover to see current wind gust speed)